Location: Whitehorse
(60.7170°N, 135.0500°W)
Time: 01:41:47
(UTC-08:00)

SL-16 R/B - Visible Passes

Search period start: 23 November 2014 00:00
Search period end: 03 December 2014 00:00
Orbit: 841 x 849 km, 71.0° (Epoch: 22 November)

Date Brightness Start Highest point End Pass type
(mag) Time Alt. Az. Time Alt. Az. Time Alt. Az.
23 Nov 3.3 17:33:07 10° W 17:38:18 35° NNW 17:43:14 11° NE visible
23 Nov 3.3 19:18:55 10° NW 19:23:55 30° N 19:25:07 28° NNE visible
23 Nov 3.6 21:03:45 10° NW 21:06:59 32° NNW 21:06:59 32° NNW visible
23 Nov 4.8 22:48:04 10° NW 22:48:52 14° NW 22:48:52 14° NW visible
24 Nov 3.2 17:19:07 10° W 17:24:19 35° NNW 17:29:30 10° NE visible
24 Nov 3.3 19:04:55 10° NW 19:09:55 30° N 19:11:25 27° NE visible
24 Nov 3.4 20:49:46 10° NW 20:53:18 34° NNW 20:53:18 34° NNW visible
24 Nov 4.7 22:34:05 10° NW 22:35:11 16° NW 22:35:11 16° NW visible
25 Nov 3.2 17:05:07 10° W 17:10:19 35° NNW 17:15:31 10° NE visible
25 Nov 3.3 18:50:55 10° NW 18:55:55 30° N 18:57:45 25° NE visible
25 Nov 3.3 20:35:47 10° NW 20:39:38 37° NNW 20:39:38 37° NNW visible
25 Nov 4.6 22:20:06 10° NW 22:21:31 18° NW 22:21:31 18° NW visible
26 Nov 3.2 16:51:06 10° W 16:56:19 35° NNW 17:01:32 10° NE visible
26 Nov 3.3 18:36:56 10° NW 18:41:55 30° N 18:44:05 23° NE visible
26 Nov 3.1 20:21:49 10° NW 20:25:58 40° N 20:25:58 40° N visible
26 Nov 4.4 22:06:08 10° NW 22:07:51 20° NW 22:07:51 20° NW visible
27 Nov 3.3 18:22:56 10° NW 18:27:55 30° N 18:30:27 22° NE visible
27 Nov 2.9 20:07:50 10° NW 20:12:20 42° N 20:12:20 42° N visible
27 Nov 4.3 21:52:09 10° NW 21:54:13 23° NW 21:54:13 23° NW visible
28 Nov 3.3 18:08:56 10° NW 18:13:55 30° N 18:16:49 20° NE visible
28 Nov 2.8 19:53:51 10° NW 19:58:42 44° NNE 19:58:42 44° NNE visible
28 Nov 4.1 21:38:11 10° NW 21:40:35 26° NW 21:40:35 26° NW visible
29 Nov 3.3 17:54:57 10° NW 17:59:55 30° N 18:03:13 18° NE visible
29 Nov 2.7 19:39:53 10° NW 19:45:06 45° NNE 19:45:06 45° NNE visible
29 Nov 3.8 21:24:12 10° NW 21:26:59 30° NW 21:26:59 30° NW visible
30 Nov 3.3 17:40:57 10° WNW 17:45:56 30° N 17:49:38 16° ENE visible
30 Nov 2.6 19:25:54 10° NW 19:31:22 44° NNE 19:31:31 44° NE visible
30 Nov 3.6 21:10:14 10° NW 21:13:24 35° NW 21:13:24 35° NW visible
30 Nov 5.1 22:55:04 10° NW 22:55:18 11° WNW 22:55:18 11° WNW visible
01 Dec 3.2 17:26:57 10° WNW 17:31:56 30° N 17:36:05 14° ENE visible
01 Dec 2.6 19:11:56 10° NW 19:17:22 44° NNE 19:17:58 42° NE visible
01 Dec 3.3 20:56:15 10° NW 20:59:51 40° NW 20:59:51 40° NW visible
01 Dec 4.9 22:41:04 10° NW 22:41:45 13° WNW 22:41:45 13° WNW visible
02 Dec 3.2 17:12:58 10° WNW 17:17:56 30° N 17:22:33 11° ENE visible
02 Dec 2.6 18:57:57 10° NW 19:03:23 43° NNE 19:04:27 39° ENE visible
02 Dec 3.0 20:42:17 10° NW 20:46:21 48° NW 20:46:21 48° NW visible
02 Dec 4.8 22:27:04 10° NW 22:28:14 15° WNW 22:28:14 15° WNW visible
